• In Russia
  • List of Countries
  • For 7 days
  • Water Temperature
  • Weather Map
  • Weather Widgets
  • user-avatar
    Login

    Hourly Weather Tuzla

    Today, 31 May, Sunday

    Time Temperature Precipitation Wind Pressure Humidity
    00:00 +8°C° 0 mm 1 mps 721 mmHg 89%
    01:00 +7°C° 0 mm 1 mps 721 mmHg 87%
    02:00 +7°C° 0 mm 1 mps 721 mmHg 88%
    03:00 +6°C° 0 mm 1 mps 721 mmHg 88%
    04:00 +6°C° 0 mm 1 mps 721 mmHg 89%
    05:00 +8°C° 0 mm 1 mps 721 mmHg 86%
    06:00 +10°C° 0 mm 1 mps 721 mmHg 82%
    07:00 +11°C° 0 mm 1 mps 721 mmHg 78%
    08:00 +12°C° 0.2 mm 2 mps 721 mmHg 75%
    09:00 +13°C° 0.2 mm 2 mps 721 mmHg 71%
    10:00 +14°C° 0.2 mm 3 mps 721 mmHg 68%
    11:00 +14°C° 0.5 mm 3 mps 721 mmHg 69%
    12:00 +14°C° 0.5 mm 3 mps 721 mmHg 71%
    13:00 +14°C° 0.5 mm 3 mps 721 mmHg 72%
    14:00 +14°C° 0.7 mm 3 mps 721 mmHg 78%
    15:00 +13°C° 0.7 mm 3 mps 720 mmHg 83%
    16:00 +12°C° 0.7 mm 3 mps 720 mmHg 88%
    17:00 +12°C° 0.4 mm 2 mps 720 mmHg 90%
    18:00 +11°C° 0.4 mm 1 mps 720 mmHg 93%
    19:00 +11°C° 0.4 mm 1 mps 720 mmHg 95%
    20:00 +10°C° 0.1 mm 1 mps 721 mmHg 95%
    21:00 +10°C° 0.1 mm 1 mps 721 mmHg 95%
    22:00 +9°C° 0.1 mm 1 mps 721 mmHg 95%
    23:00 +9°C° 0.2 mm 1 mps 721 mmHg 96%

    Tomorrow, 1 June, Monday

    Time Temperature Precipitation Wind Pressure Humidity
    00:00 +9°C° 0.2 mm 1 mps 721 mmHg 97%
    01:00 +9°C° 0.2 mm 1 mps 720 mmHg 98%
    02:00 +9°C° 0.4 mm 1 mps 720 mmHg 98%
    03:00 +10°C° 0.4 mm 1 mps 720 mmHg 98%
    04:00 +10°C° 0.4 mm 1 mps 720 mmHg 99%
    05:00 +10°C° 0.6 mm 1 mps 720 mmHg 99%
    06:00 +10°C° 0.6 mm 1 mps 720 mmHg 99%
    07:00 +10°C° 0.6 mm 1 mps 720 mmHg 98%
    08:00 +10°C° 0.6 mm 1 mps 721 mmHg 98%
    09:00 +11°C° 0.6 mm 1 mps 721 mmHg 98%
    10:00 +11°C° 0.6 mm 1 mps 721 mmHg 98%
    11:00 +11°C° 0.6 mm 1 mps 721 mmHg 98%
    12:00 +12°C° 0.6 mm 1 mps 721 mmHg 98%
    13:00 +12°C° 0.6 mm 1 mps 721 mmHg 97%
    14:00 +13°C° 0.6 mm 1 mps 721 mmHg 95%
    15:00 +14°C° 0.6 mm 1 mps 721 mmHg 93%
    16:00 +15°C° 0.6 mm 1 mps 721 mmHg 91%
    17:00 +14°C° 0.4 mm 1 mps 721 mmHg 93%
    18:00 +13°C° 0.4 mm 1 mps 721 mmHg 94%
    19:00 +12°C° 0.4 mm 1 mps 720 mmHg 96%
    20:00 +12°C° 0.1 mm 1 mps 721 mmHg 95%
    21:00 +12°C° 0.1 mm 1 mps 721 mmHg 95%
    22:00 +11°C° 0.1 mm 1 mps 721 mmHg 94%
    23:00 +11°C° 0.1 mm 1 mps 721 mmHg 95%

    Day after tomorrow, 2 June, Tuesday

    Time Temperature Precipitation Wind Pressure Humidity
    00:00 +11°C° 0.1 mm 1 mps 721 mmHg 95%
    01:00 +12°C° 0.1 mm 1 mps 721 mmHg 95%
    02:00 +11°C° 0.2 mm 1 mps 721 mmHg 95%
    03:00 +10°C° 0.2 mm 1 mps 720 mmHg 96%
    04:00 +10°C° 0.2 mm 1 mps 720 mmHg 96%
    05:00 +11°C° 0.1 mm 1 mps 720 mmHg 95%
    06:00 +12°C° 0.1 mm 2 mps 720 mmHg 93%
    07:00 +13°C° 0.1 mm 2 mps 720 mmHg 92%
    08:00 +13°C° 0.1 mm 2 mps 721 mmHg 87%
    09:00 +14°C° 0.1 mm 2 mps 721 mmHg 83%
    10:00 +14°C° 0.1 mm 3 mps 721 mmHg 78%
    11:00 +16°C° 0.3 mm 3 mps 721 mmHg 74%
    12:00 +16°C° 0.3 mm 3 mps 720 mmHg 69%
    13:00 +17°C° 0.3 mm 3 mps 720 mmHg 64%
    14:00 +17°C° 0.3 mm 3 mps 720 mmHg 68%
    15:00 +16°C° 0.3 mm 3 mps 719 mmHg 71%
    16:00 +16°C° 0.3 mm 3 mps 719 mmHg 75%
    17:00 +15°C° 0.2 mm 2 mps 719 mmHg 80%
    18:00 +13°C° 0.2 mm 2 mps 719 mmHg 84%
    19:00 +12°C° 0.2 mm 1 mps 718 mmHg 89%
    20:00 +11°C° 0 mm 1 mps 718 mmHg 90%
    21:00 +10°C° 0 mm 1 mps 718 mmHg 91%
    22:00 +9°C° 0 mm 1 mps 718 mmHg 92%
    23:00 +9°C° 0 mm 1 mps 718 mmHg 92%

    3 June, Wednesday

    Time Temperature Precipitation Wind Pressure Humidity
    00:00 +9°C° 0 mm 1 mps 718 mmHg 92%
    01:00 +9°C° 0 mm 1 mps 718 mmHg 92%
    02:00 +9°C° 0 mm 1 mps 718 mmHg 92%
    03:00 +9°C° 0 mm 1 mps 718 mmHg 93%
    04:00 +8°C° 0 mm 1 mps 718 mmHg 93%
    05:00 +10°C° 0 mm 1 mps 718 mmHg 89%
    06:00 +12°C° 0 mm 1 mps 718 mmHg 86%
    07:00 +14°C° 0 mm 1 mps 718 mmHg 82%
    08:00 +15°C° 0.1 mm 2 mps 718 mmHg 72%
    09:00 +17°C° 0.1 mm 2 mps 718 mmHg 63%
    10:00 +18°C° 0.1 mm 3 mps 719 mmHg 53%
    11:00 +19°C° 0 mm 2 mps 718 mmHg 52%
    12:00 +20°C° 0 mm 2 mps 718 mmHg 51%
    13:00 +20°C° 0 mm 2 mps 718 mmHg 50%
    14:00 +21°C° 0 mm 2 mps 718 mmHg 51%
    15:00 +21°C° 0 mm 2 mps 718 mmHg 53%
    16:00 +21°C° 0 mm 2 mps 717 mmHg 54%
    17:00 +20°C° 0.1 mm 1 mps 717 mmHg 62%
    18:00 +18°C° 0.1 mm 1 mps 717 mmHg 70%
    19:00 +14°C° 0.1 mm 0 mps 717 mmHg 79%
    20:00 +15°C° 0 mm 1 mps 717 mmHg 81%
    21:00 +14°C° 0 mm 1 mps 717 mmHg 83%
    22:00 +13°C° 0 mm 2 mps 718 mmHg 84%
    23:00 +12°C° 0 mm 2 mps 717 mmHg 86%

    4 June, Thursday

    Time Temperature Precipitation Wind Pressure Humidity
    00:00 +12°C° 0 mm 2 mps 717 mmHg 88%
    01:00 +12°C° 0 mm 2 mps 717 mmHg 89%
    02:00 +10°C° 0 mm 2 mps 717 mmHg 89%
    03:00 +10°C° 0 mm 2 mps 717 mmHg 90%
    04:00 +10°C° 0 mm 2 mps 717 mmHg 90%
    05:00 +13°C° 0 mm 2 mps 717 mmHg 84%
    06:00 +15°C° 0 mm 2 mps 717 mmHg 78%
    07:00 +17°C° 0 mm 2 mps 717 mmHg 71%
    08:00 +19°C° 0 mm 3 mps 718 mmHg 64%
    09:00 +21°C° 0 mm 3 mps 718 mmHg 57%
    10:00 +24°C° 0 mm 3 mps 718 mmHg 50%
    11:00 +25°C° 0 mm 4 mps 718 mmHg 49%
    12:00 +25°C° 0 mm 4 mps 718 mmHg 48%
    13:00 +26°C° 0 mm 5 mps 717 mmHg 46%
    14:00 +25°C° 0 mm 5 mps 717 mmHg 48%
    15:00 +25°C° 0 mm 5 mps 717 mmHg 51%
    16:00 +23°C° 0 mm 5 mps 717 mmHg 53%
    17:00 +21°C° 0 mm 4 mps 717 mmHg 57%
    18:00 +20°C° 0 mm 3 mps 717 mmHg 62%
    19:00 +18°C° 0 mm 3 mps 716 mmHg 66%
    20:00 +18°C° 0 mm 3 mps 717 mmHg 65%
    21:00 +18°C° 0 mm 3 mps 717 mmHg 65%
    22:00 +17°C° 0 mm 3 mps 717 mmHg 64%
    23:00 +17°C° 0 mm 3 mps 717 mmHg 66%

    5 June, Friday

    Time Temperature Precipitation Wind Pressure Humidity
    00:00 +17°C° 0 mm 2 mps 717 mmHg 67%
    01:00 +16°C° 0 mm 2 mps 717 mmHg 68%
    02:00 +16°C° 0 mm 2 mps 717 mmHg 69%
    03:00 +16°C° 0 mm 2 mps 717 mmHg 71%
    04:00 +16°C° 0 mm 2 mps 717 mmHg 72%
    05:00 +16°C° 0.5 mm 2 mps 718 mmHg 79%
    06:00 +16°C° 0.5 mm 2 mps 718 mmHg 86%
    07:00 +16°C° 0.5 mm 2 mps 719 mmHg 93%
    08:00 +16°C° 0.1 mm 1 mps 719 mmHg 93%
    09:00 +16°C° 0.1 mm 1 mps 719 mmHg 92%
    10:00 +18°C° 0.1 mm 1 mps 719 mmHg 92%
    11:00 +19°C° 0 mm 1 mps 719 mmHg 88%
    12:00 +20°C° 0 mm 1 mps 719 mmHg 85%
    13:00 +21°C° 0 mm 1 mps 719 mmHg 81%
    14:00 +22°C° 0.3 mm 1 mps 719 mmHg 77%
    15:00 +24°C° 0.3 mm 2 mps 719 mmHg 74%
    16:00 +25°C° 0.3 mm 2 mps 719 mmHg 70%
    17:00 +23°C° 0.1 mm 2 mps 718 mmHg 74%
    18:00 +21°C° 0.1 mm 2 mps 718 mmHg 78%
    19:00 +20°C° 0.1 mm 2 mps 718 mmHg 82%
    20:00 +18°C° 0 mm 2 mps 718 mmHg 83%
    21:00 +17°C° 0 mm 2 mps 718 mmHg 85%
    22:00 +16°C° 0 mm 2 mps 718 mmHg 87%
    23:00 +16°C° 0 mm 2 mps 718 mmHg 87%
    Show more